When you browse on this site, cookies collect data to enhance your experience and personalize the content and advertising you see.
Visit our Privacy Policy to learn more. By continuing to use the site, you agree to this use of cookies and data.
  • en Suisse
  • Liste des pays
  • À 7 jours
  • Température de l'eau
  • Carte satellitaire
  • Carte météo
  • Widgets météo
  • user-avatar
    Se connecter

    Météo par heure à Linz

    Ce jour, 22 Mars, Vendredi

    Heure Température Précipitation Vent Pression Humidité
    00:00 +5°C° 0 mm 1 m/s 745 mmHg 65%
    01:00 +5°C° 0 mm 1 m/s 745 mmHg 62%
    02:00 +5°C° 0 mm 1 m/s 745 mmHg 62%
    03:00 +5°C° 0 mm 1 m/s 744 mmHg 62%
    04:00 +4°C° 0 mm 1 m/s 744 mmHg 62%
    05:00 +4°C° 0 mm 1 m/s 744 mmHg 62%
    06:00 +5°C° 0 mm 1 m/s 744 mmHg 63%
    07:00 +5°C° 0 mm 1 m/s 745 mmHg 61%
    08:00 +6°C° 0 mm 2 m/s 744 mmHg 56%
    09:00 +9°C° 0 mm 2 m/s 744 mmHg 51%
    10:00 +12°C° 0 mm 2 m/s 743 mmHg 46%
    11:00 +13°C° 0 mm 3 m/s 743 mmHg 45%
    12:00 +16°C° 0 mm 3 m/s 743 mmHg 44%
    13:00 +17°C° 0 mm 4 m/s 743 mmHg 43%
    14:00 +17°C° 0 mm 4 m/s 742 mmHg 46%
    15:00 +17°C° 0 mm 4 m/s 742 mmHg 48%
    16:00 +17°C° 0 mm 4 m/s 742 mmHg 50%
    17:00 +14°C° 0 mm 3 m/s 742 mmHg 58%
    18:00 +12°C° 0 mm 3 m/s 742 mmHg 65%
    19:00 +10°C° 0 mm 3 m/s 742 mmHg 73%
    20:00 +9°C° 0 mm 2 m/s 742 mmHg 75%
    21:00 +8°C° 0 mm 2 m/s 742 mmHg 77%
    22:00 +9°C° 0 mm 1 m/s 743 mmHg 79%
    23:00 +8°C° 0 mm 1 m/s 743 mmHg 79%

    Demain, 23 Mars, Samedi

    Heure Température Précipitation Vent Pression Humidité
    00:00 +8°C° 0 mm 1 m/s 742 mmHg 79%
    01:00 +7°C° 0 mm 1 m/s 742 mmHg 79%
    02:00 +7°C° 0 mm 1 m/s 742 mmHg 79%
    03:00 +7°C° 0 mm 1 m/s 742 mmHg 79%
    04:00 +6°C° 0 mm 1 m/s 742 mmHg 79%
    05:00 +6°C° 0 mm 0 m/s 742 mmHg 78%
    06:00 +6°C° 0 mm 0 m/s 742 mmHg 77%
    07:00 +6°C° 0 mm 0 m/s 742 mmHg 77%
    08:00 +9°C° 0 mm 1 m/s 742 mmHg 70%
    09:00 +11°C° 0 mm 1 m/s 742 mmHg 64%
    10:00 +14°C° 0 mm 1 m/s 741 mmHg 57%
    11:00 +15°C° 0 mm 1 m/s 741 mmHg 55%
    12:00 +16°C° 0 mm 1 m/s 741 mmHg 53%
    13:00 +18°C° 0 mm 1 m/s 740 mmHg 51%
    14:00 +18°C° 0 mm 1 m/s 740 mmHg 51%
    15:00 +18°C° 0 mm 1 m/s 740 mmHg 52%
    16:00 +19°C° 0 mm 1 m/s 740 mmHg 52%
    17:00 +16°C° 0 mm 1 m/s 740 mmHg 59%
    18:00 +14°C° 0 mm 1 m/s 740 mmHg 66%
    19:00 +11°C° 0 mm 0 m/s 740 mmHg 73%
    20:00 +11°C° 0 mm 1 m/s 740 mmHg 75%
    21:00 +11°C° 0 mm 1 m/s 741 mmHg 77%
    22:00 +10°C° 0 mm 1 m/s 741 mmHg 79%
    23:00 +10°C° 0 mm 1 m/s 741 mmHg 80%

    Après-demain, 24 Mars, Dimanche

    Heure Température Précipitation Vent Pression Humidité
    00:00 +9°C° 0 mm 1 m/s 741 mmHg 82%
    01:00 +9°C° 0 mm 1 m/s 741 mmHg 83%
    02:00 +9°C° 0 mm 1 m/s 740 mmHg 84%
    03:00 +8°C° 0 mm 1 m/s 740 mmHg 85%
    04:00 +8°C° 0 mm 1 m/s 740 mmHg 85%
    05:00 +8°C° 0 mm 1 m/s 740 mmHg 85%
    06:00 +8°C° 0 mm 1 m/s 740 mmHg 84%
    07:00 +8°C° 0 mm 1 m/s 740 mmHg 84%
    08:00 +10°C° 0 mm 0 m/s 740 mmHg 77%
    09:00 +12°C° 0 mm 0 m/s 740 mmHg 69%
    10:00 +14°C° 0 mm 0 m/s 740 mmHg 62%
    11:00 +16°C° 0 mm 1 m/s 739 mmHg 60%
    12:00 +18°C° 0 mm 1 m/s 739 mmHg 57%
    13:00 +19°C° 0 mm 1 m/s 739 mmHg 55%
    14:00 +18°C° 0 mm 1 m/s 738 mmHg 55%
    15:00 +17°C° 0 mm 2 m/s 738 mmHg 55%
    16:00 +17°C° 0 mm 2 m/s 738 mmHg 55%
    17:00 +16°C° 0 mm 1 m/s 738 mmHg 62%
    18:00 +14°C° 0 mm 1 m/s 738 mmHg 69%
    19:00 +12°C° 0 mm 1 m/s 738 mmHg 76%
    20:00 +12°C° 0.3 mm 1 m/s 739 mmHg 79%
    21:00 +12°C° 0.3 mm 1 m/s 739 mmHg 82%
    22:00 +11°C° 0.3 mm 1 m/s 739 mmHg 84%
    23:00 +11°C° 0.1 mm 1 m/s 739 mmHg 86%

    25 Mars, Lundi

    Heure Température Précipitation Vent Pression Humidité
    00:00 +10°C° 0.1 mm 1 m/s 739 mmHg 89%
    01:00 +9°C° 0.1 mm 1 m/s 739 mmHg 91%
    02:00 +9°C° 0.1 mm 1 m/s 739 mmHg 90%
    03:00 +9°C° 0.1 mm 1 m/s 739 mmHg 90%
    04:00 +9°C° 0.1 mm 1 m/s 739 mmHg 89%
    05:00 +9°C° 0.1 mm 1 m/s 739 mmHg 89%
    06:00 +9°C° 0.1 mm 1 m/s 739 mmHg 88%
    07:00 +9°C° 0.1 mm 1 m/s 739 mmHg 88%
    08:00 +8°C° 0.1 mm 2 m/s 739 mmHg 83%
    09:00 +9°C° 0.1 mm 3 m/s 739 mmHg 78%
    10:00 +8°C° 0.1 mm 4 m/s 739 mmHg 72%
    11:00 +9°C° 0 mm 5 m/s 738 mmHg 65%
    12:00 +9°C° 0 mm 6 m/s 738 mmHg 58%
    13:00 +10°C° 0 mm 7 m/s 737 mmHg 51%
    14:00 +10°C° 0 mm 7 m/s 737 mmHg 51%
    15:00 +9°C° 0 mm 7 m/s 737 mmHg 51%
    16:00 +9°C° 0 mm 7 m/s 737 mmHg 51%
    17:00 +8°C° 0.1 mm 7 m/s 737 mmHg 56%
    18:00 +7°C° 0.1 mm 6 m/s 738 mmHg 61%
    19:00 +5°C° 0.1 mm 6 m/s 739 mmHg 66%
    20:00 +5°C° 0.3 mm 5 m/s 739 mmHg 69%
    21:00 +5°C° 0.3 mm 4 m/s 740 mmHg 71%
    22:00 +4°C° 0.3 mm 3 m/s 740 mmHg 74%
    23:00 +3°C° 0 mm 3 m/s 741 mmHg 76%

    26 Mars, Mardi

    Heure Température Précipitation Vent Pression Humidité
    00:00 +2°C° 0 mm 3 m/s 741 mmHg 78%
    01:00 +1°C° 0 mm 3 m/s 742 mmHg 81%
    02:00 +1°C° 0 mm 3 m/s 742 mmHg 82%
    03:00 +1°C° 0 mm 3 m/s 742 mmHg 82%
    04:00 0°C° 0 mm 4 m/s 743 mmHg 83%
    05:00 0°C° 0 mm 4 m/s 743 mmHg 83%
    06:00 +1°C° 0 mm 3 m/s 744 mmHg 82%
    07:00 +1°C° 0 mm 3 m/s 745 mmHg 81%
    08:00 +2°C° 0 mm 3 m/s 745 mmHg 71%
    09:00 +3°C° 0 mm 3 m/s 746 mmHg 61%
    10:00 +4°C° 0 mm 3 m/s 746 mmHg 51%
    11:00 +5°C° 0 mm 3 m/s 746 mmHg 46%
    12:00 +7°C° 0 mm 3 m/s 745 mmHg 41%
    13:00 +8°C° 0 mm 3 m/s 745 mmHg 36%
    14:00 +8°C° 0 mm 3 m/s 745 mmHg 36%
    15:00 +8°C° 0 mm 2 m/s 745 mmHg 35%
    16:00 +8°C° 0 mm 2 m/s 745 mmHg 35%
    17:00 +7°C° 0 mm 2 m/s 745 mmHg 41%
    18:00 +6°C° 0 mm 1 m/s 745 mmHg 47%
    19:00 +4°C° 0 mm 1 m/s 746 mmHg 53%
    20:00 +4°C° 0 mm 1 m/s 746 mmHg 56%
    21:00 +3°C° 0 mm 1 m/s 747 mmHg 59%
    22:00 +2°C° 0 mm 1 m/s 747 mmHg 62%
    23:00 +2°C° 0 mm 1 m/s 747 mmHg 63%

    27 Mars, Mercredi

    Heure Température Précipitation Vent Pression Humidité
    00:00 +2°C° 0 mm 1 m/s 747 mmHg 65%
    01:00 +1°C° 0 mm 1 m/s 746 mmHg 66%
    02:00 +1°C° 0 mm 1 m/s 746 mmHg 67%
    03:00 +1°C° 0 mm 1 m/s 746 mmHg 67%
    04:00 +1°C° 0 mm 1 m/s 746 mmHg 67%
    05:00 +2°C° 0 mm 1 m/s 746 mmHg 65%
    06:00 +2°C° 0 mm 1 m/s 746 mmHg 63%
    07:00 +3°C° 0 mm 1 m/s 746 mmHg 62%
    08:00 +5°C° 0 mm 1 m/s 746 mmHg 56%
    09:00 +5°C° 0 mm 2 m/s 745 mmHg 50%
    10:00 +7°C° 0 mm 2 m/s 745 mmHg 45%
    11:00 +8°C° 0 mm 3 m/s 745 mmHg 42%
    12:00 +10°C° 0 mm 3 m/s 744 mmHg 40%
    13:00 +11°C° 0 mm 3 m/s 744 mmHg 37%
    14:00 +11°C° 0 mm 4 m/s 744 mmHg 39%
    15:00 +11°C° 0 mm 4 m/s 744 mmHg 41%
    16:00 +10°C° 0 mm 4 m/s 743 mmHg 43%
    17:00 +9°C° 0 mm 3 m/s 744 mmHg 48%
    18:00 +8°C° 0 mm 3 m/s 744 mmHg 53%
    19:00 +7°C° 0 mm 2 m/s 745 mmHg 58%
    20:00 +6°C° 0 mm 2 m/s 745 mmHg 59%
    21:00 +6°C° 0 mm 2 m/s 745 mmHg 59%
    22:00 +7°C° 0 mm 1 m/s 746 mmHg 60%
    23:00 +7°C° 0 mm 1 m/s 746 mmHg 61%
    Voir plus